CAPE
0 0 0 0 0 0 0 0 0 0 0 0 0 0 0 0 0 0 0 0 0 0 0 0 0 0 0 2 1 0 0 0
0 0 0 0 0 0 0 0 0 0 0 0 0 0 0 0 0 0 0 0 0 0 0 0 0 0 0 0 0 0 0 0
0 0 0 0 0 0 0 0 0 0 0 0 0 0 0 0 0 0 0 0 0 0 0 0 0 0 0 0 0 0 0 0
0 0 0 0 0 0 0 0 0 0 0 0 0 0 0 0 0 0 0 0 0 0 0 0 0 0 0 0 0 0 0 0
0 0 0 0 0 0 0 0 0 0 0 0 0 0 0 0 0 0 0 0 0 0 0 0 0 0 0 0 0 0 0 0
0 0 0 0 0 0 0 0 0 0 0 0 0 0 0 0 0 0 0 0 0 0 0 0 0 0 0 0 0 0 0 4
0 0 0 0 0 0 0 0 0 0 0 0 0 0 0 0 0 0 0 0 0 0 0 0 0 0 0 0 0 0 0 0
0 0 0 0 0 0 0 0 0 0 0 0 0 0 0 0 0 0 0 0 0 0 0 0 0 0 0 0 0 0 0 0
0 0 0 0 0 0 0 0 0 0 0 0 0 0 0 0 0 0 0 0 0 0 0 0 0 0 0 0 0 0 0 0
0 0 0 0 0 0 0 0 0 0 0 0 0 0 0 0 0 0 0 0 0 0 0 0 0 0 0 0 0 0 0 0
0 0 0 0 0 0 0 0 0 0 0 0 0 0 0 0 0 0 0 0 0 0 0 0 0 0 0 0 0 0 0 0
0 0 0 0 0 0 0 0 0 0 0 0 0 0 0 0 0 0 0 0 0 0 0 0 0 0 0 0 0 0 0 0
0 0 0 0 0 0 0 0 0 0 0 0 0 0 0 0 0 0 0 0 0 0 0 0 0 0 0 0 0 0 0 0
0 0 0 0 0 0 0 0 0 0 0 0 0 0 0 0 0 0 0 1 0 0 3 1 0 0 0 0 0 0 0 0
0 0 0 0 0 0 0 0 0 0 0 0 0 0 0 0 0 0 0 0 0 1 0 0 0 0 0 0 0 0 0 0
0 0 0 0 0 0 0 0 0 0 0 0 0 0 0 0 0 0 0 0 0 1 0 0 0 0 1 1 1 2 1 0
0 0 0 0 0 0 0 0 0 0 0 0 0 0 0 1 1 0 0 0 0 0 0 0 0 0 6 5 5 7 0 1
0 0 0 0 0 0 0 0 0 0 0 0 2 4 0 0 0 0 0 0 0 0 1 2 1 0 1 3 4 1 0 0
0 0 0 0 0 0 0 0 0 0 0 0 5 8 2 0 0 0 0 0 0 3 2 1 0 0 1 5 2 0 0 0
CIN
0 0 0 0 0 0 0 0 0 0 0 0 0 0 0 0 0 0 0 0 0 0 0 0 0 0 0 -120 -23 0 0 0
0 0 0 0 0 0 0 0 0 0 0 0 0 0 0 0 0 0 0 0 0 0 0 0 0 0 0 0 0 0 0 0
0 0 0 0 0 0 0 0 0 0 0 0 0 0 0 0 0 0 0 0 0 0 0 0 0 0 0 0 0 0 0 0
0 0 0 0 0 0 0 0 0 0 0 0 0 0 0 0 0 0 0 0 0 0 0 0 0 0 0 0 0 0 0 0
0 0 0 0 0 0 0 0 0 0 0 0 0 0 0 0 0 0 0 0 0 0 0 0 0 0 0 0 0 0 0 0
0 0 0 0 0 0 0 0 0 0 0 0 0 0 0 0 0 0 0 0 0 0 0 0 0 0 0 0 0 0 0 0
0 0 0 0 0 0 0 0 0 0 0 0 0 0 0 0 0 0 0 0 0 0 0 0 0 0 0 0 0 0 0 0
0 0 0 0 0 0 0 0 0 0 0 0 0 0 0 0 0 0 0 0 0 0 0 0 0 0 0 0 0 0 0 0
0 0 0 0 0 0 0 0 0 0 0 0 0 0 0 0 0 0 0 0 0 0 0 0 0 0 0 0 0 0 0 0
0 0 0 0 0 0 0 0 0 0 0 0 0 0 0 0 0 0 0 0 0 0 0 0 0 0 0 0 0 0 0 0
0 0 0 0 0 0 0 0 0 0 0 0 0 0 0 0 0 0 0 0 0 0 0 0 0 0 0 0 0 0 0 0
0 0 0 0 0 0 0 0 0 0 0 0 0 0 0 0 0 0 0 0 0 0 0 0 0 0 0 0 0 0 0 0
0 0 0 0 0 0 0 0 0 0 0 0 0 0 0 0 0 0 0 0 -12 0 0 0 0 0 0 0 0 0 0 0
0 0 0 0 0 0 0 0 0 0 0 0 0 0 0 0 0 0 0 -17 0 0 -3 -2 0 0 0 0 0 0 0 0
0 0 0 0 0 0 0 0 0 0 0 0 0 0 0 0 0 0 0 0 0 -7 -3 0 0 0 0 0 0 0 0 0
0 0 0 0 0 0 0 0 0 0 0 0 0 0 0 0 0 0 0 0 -12 -13 0 0 0 0 0 0 0 -2 -2 -5
0 0 0 0 0 0 0 0 0 0 0 0 0 0 -5 -28 -35 0 0 0 -3 0 -2 -3 -4 -6 -1 0 0 0 0 -5
0 0 0 0 0 0 0 0 0 0 0 -1 -7 -12 0 -13 -3 0 0 0 -1 0 -5 -1 -1 0 0 0 0 -3 0 0
0 0 0 0 0 0 0 0 0 0 0 0 -8 -6 -10 0 0 0 0 0 0 -1 0 -1 0 -2 0 0 0 0 -1 0
Wind_Speed
7 7 7 4 7 7 5 4 1 1 1 3 3 5 4 4 5 6 8 7 8 6 6 7 8 4 4 3 5 5 5 4
5 5 7 8 7 9 7 8 7 5 5 3 3 3 2 4 4 7 8 8 8 8 5 6 6 5 5 5 3 4 4 4
8 7 7 7 8 8 8 8 8 6 4 2 1 1 2 3 3 5 6 7 7 6 5 4 5 4 5 5 5 3 2 3
8 9 7 8 8 8 8 7 7 5 4 2 2 2 2 3 3 3 4 5 5 5 5 5 5 4 4 4 4 4 2 3
8 9 7 7 6 7 8 7 6 6 4 4 4 2 2 1 0 0 2 3 3 3 4 5 5 3 5 4 3 2 2 3
12 8 8 6 6 7 7 7 7 5 5 5 4 3 0 1 1 3 2 3 4 5 5 4 5 4 4 5 5 4 3 4
9 5 5 6 5 7 6 7 5 5 5 5 5 3 3 2 2 3 3 3 3 4 4 4 5 5 5 5 5 6 5 5
7 7 6 6 6 6 6 5 4 3 4 4 3 2 2 3 2 3 4 3 3 5 4 4 4 5 5 5 5 5 5 4
5 7 6 6 6 5 6 4 3 2 2 1 1 2 2 3 3 3 3 3 4 5 6 5 6 6 5 5 3 4 5 5
6 5 5 6 5 4 6 4 2 1 1 2 4 4 3 4 6 4 4 5 4 5 6 6 6 6 5 5 4 5 4 5
2 3 5 4 4 4 4 2 1 2 4 4 4 5 5 6 5 7 6 5 4 5 6 6 6 6 6 6 5 5 5 5
4 3 4 5 4 4 3 1 2 4 5 5 5 6 6 6 6 6 5 4 6 7 6 6 6 6 6 6 6 7 6 6
3 3 4 5 5 4 3 1 3 5 6 6 6 6 6 6 6 5 4 5 7 7 7 6 6 7 7 6 6 6 7 7
1 1 3 6 5 5 2 1 4 6 6 6 6 6 6 6 4 4 5 6 7 8 6 7 7 7 7 7 7 7 7 6
3 2 2 3 4 4 2 1 3 5 6 6 6 6 5 4 5 6 6 5 6 8 8 7 9 8 7 8 9 7 6 5
3 1 1 1 4 4 1 1 4 5 6 6 6 6 6 6 5 5 6 6 7 8 9 8 7 6 6 7 9 8 6 8
6 6 7 7 6 6 1 2 5 5 6 6 6 6 7 6 6 5 6 6 8 7 8 6 7 6 11 14 12 7 6 9
9 9 8 8 9 7 4 4 5 6 5 8 6 6 6 7 8 7 5 7 8 9 8 9 9 6 13 14 14 5 8 10
7 6 8 9 9 8 3 4 5 4 6 9 9 8 7 6 7 9 6 6 8 8 9 9 10 7 14 13 14 6 8 10
Wind_Direction
184 184 181 85 70 84 84 92 295 236 353 24 35 65 46 32 30 20 15 13 19 22 18 16 2 327 307 279 237 207 216 234
159 86 90 83 57 83 78 81 44 64 48 30 21 23 27 28 28 29 29 24 28 30 22 15 6 8 347 336 281 251 246 224
103 81 87 90 105 93 79 72 59 52 59 52 68 91 88 77 26 28 23 32 32 29 22 10 4 356 360 3 11 319 290 193
112 110 113 98 100 116 102 95 88 74 73 68 44 39 26 31 18 26 20 35 18 22 4 350 347 350 336 336 346 10 328 311
123 123 107 118 121 106 105 113 104 78 71 80 88 112 79 353 224 201 354 9 341 324 326 335 328 332 327 313 324 292 286 270
134 127 129 118 127 117 110 95 78 74 74 79 78 70 126 272 291 343 331 309 316 316 319 310 298 298 294 302 310 303 279 274
94 93 128 126 116 108 103 96 88 72 71 64 70 50 345 341 336 348 327 310 302 309 308 303 295 285 277 273 282 285 280 279
128 137 190 128 126 122 124 115 94 87 85 82 81 42 353 314 314 289 320 318 299 303 306 306 295 280 270 259 265 271 269 265
205 183 147 132 133 129 111 124 123 123 122 137 191 298 288 292 278 285 282 268 278 291 297 299 293 289 285 274 255 257 257 252
189 155 133 126 135 124 151 143 157 229 291 298 275 278 303 283 288 276 266 274 269 289 296 292 293 295 293 284 265 267 260 251
153 124 139 152 143 152 145 152 228 298 303 292 299 304 296 286 285 275 266 275 285 294 284 285 284 284 287 275 265 263 257 255
155 162 172 155 159 166 173 222 311 306 295 298 299 297 299 293 278 278 293 298 287 279 268 278 276 279 282 280 269 265 254 255
165 130 170 179 185 187 206 310 327 307 305 302 301 302 309 315 320 331 313 293 301 287 282 289 276 274 269 266 269 267 259 260
227 187 176 199 200 214 213 5 345 332 330 324 318 324 334 342 347 323 307 295 302 302 302 303 291 284 281 273 257 265 262 253
239 282 249 197 204 235 226 296 352 337 345 341 336 337 339 319 303 310 302 313 314 321 302 295 299 294 289 282 298 276 265 272
349 358 32 120 229 262 207 274 341 338 345 345 329 321 315 296 301 309 327 317 321 317 317 314 312 290 283 301 289 273 270 266
29 57 35 13 337 321 240 37 356 346 338 339 327 322 316 326 319 313 328 321 330 317 313 307 300 290 301 313 308 288 271 273
54 44 28 11 357 343 43 49 356 355 337 331 334 322 326 339 329 314 336 335 325 327 315 324 321 308 311 306 312 284 291 286
50 27 23 13 358 13 40 23 359 354 350 343 339 339 342 336 332 343 326 344 325 334 328 325 326 312 313 304 313 289 290 280